Simultaneous Nadir Overpasses (SNOs) Predictions

Prediction of SNOs between GOES-16 and METOP-B Satellite Orbit:

Table of predicted SNOs for the next 14.0 days since TLE Epoch: 4/13/2024
Index Date Time (GOES-16) GOES-16 Lat,Lon METOP-B Lat,Lon Distance(km) Time Diff (sec)
1 04/13/2024 14:16:00 0.02, -75.21 -0.54, -72.76 279.61 80
2 04/15/2024 02:35:00 -0.02, -75.21 -0.50, -77.37 245.53 80
3 04/16/2024 02:11:40 -0.02, -75.22 0.64, -72.38 323.64 80
4 04/17/2024 14:30:31 0.01, -75.24 0.36, -76.95 195.14 80
5 04/18/2024 14:12:31 0.01, -75.25 -0.72, -71.96 374.75 80
6 04/20/2024 02:31:30 -0.01, -75.26 -0.31, -76.56 148.58 80
7 04/21/2024 02:08:11 -0.01, -75.27 0.83, -71.58 421.73 80
8 04/22/2024 14:27:01 0.01, -75.31 0.21, -76.14 95.54 80
9 04/23/2024 14:09:02 0.01, -75.32 -0.94, -71.16 475.14 80
10 04/25/2024 02:28:01 -0.00, -75.34 -0.09, -75.76 47.25 80
